DUTHsat (42724 NORAD) Tracking and Keplerian Element Data

This shows tracking and keplerian element data for the satellite.

Feedback or suggestion? Click here.




ElementValue
Catalog42724
NameDUTHsat
Epoch Orbit6470
Epoch Day193.4303344
Epoch Year2018
RAAN212.3455
Inclination51.628
Eccentricity0.000735
Argument of Perigee11.5251
Mean Anonmoly348.5922
Mean Motion15.90508716
Decay Rate0.00125706
L11 42724U 98067MD 18193.43033440 .00125706 16919-4 40840-3 0 9992
L22 42724 51.6280 212.3455 0007350 11.5251 348.5922 15.90508716 64707

Live tracking and technical data element details for DUTHsat (NORAD 42724). DUTHsat can be tracked NOW for your location showing map with azimuth and elevation plus other details from your city location.

Track the satellite on the map from your city or location and see movement details for azimuth, elevation, latitude, longitude, range, height, and movement on the map or in text.







IsCatalogInMostPopularTable: catalog: 42724, numindb: 90
Update: records affected: 1



GetName: 42724 DUTHsat

Hit Count: updated at: Wed, 18 Jul 2018 20:30:16 GMT